Big Rapids, MI

3:59 AM EDT on May 30, 2017 (GMT -0400)
Roben-Hood

Weather History for KRQB - May, 2013

Change the Weather History Date:

Thursday, May 23, 2013

  Actual Average Record
Temperature  
Mean Temperature 49 °F -  
Max Temperature 59 °F 70 °F 87 °F (1977)
Min Temperature 39 °F 45 °F 28 °F (2006)
Degree Days  
Heating Degree Days 16    
Moisture  
Dew Point 45 °F    
Average Humidity 83    
Maximum Humidity 96    
Minimum Humidity 56    
Precipitation  
Precipitation 0.15 in - - ()
Sea Level Pressure  
Sea Level Pressure 29.94 in    
Wind  
Wind Speed 7 mph (North)    
Max Wind Speed 18 mph    
Max Gust Speed 26 mph    
Visibility 9 miles    
Events Rain    
Averages and records for this station are not official NWS values.
T = Trace of Precipitation, MM = Missing Value Source: NWS Daily Summary

Daily Weather History Graph

Daily Weather History Graph

Search for Another Location

Airport or City:

Trip Planner

Search our weather history database for the weather conditions in past years. The results will help you decide how hot, cold, wet, or windy it might be!

Date:

Astronomy

May. 23, 2013 Rise Set
Actual Time 6:08 AM EDT 9:09 PM EDT
Civil Twilight 5:34 AM EDT 9:43 PM EDT
Nautical Twilight 4:51 AM EDT 10:27 PM EDT
Astronomical Twilight 3:59 AM EDT 11:19 PM EDT
Moon 7:38 PM EDT (5/23) 4:56 AM EDT (5/23)
Length of Visible Light 16h 08m
Length of Day
15h 00m
Waxing Gibbous, 97% of the Moon is Illuminated
May 23
Waxing Gibbous
May 25
Full
May 31
Last Quarter
Jun 8
New
Jun 16
First Quarter

Hourly Weather History & Observations

Time (EDT) Temp. Windchill Dew Point Humidity Pressure Visibility Wind Dir Wind Speed Gust Speed Precip Events Conditions
12:15 AM 59.4 °F - 58.1 °F 96% 29.70 in 10.0 mi Calm Calm - N/A   Overcast
12:35 AM 59.7 °F - 58.1 °F 94% 29.71 in 10.0 mi West 3.5 mph - N/A   Overcast
12:55 AM 59.5 °F - 58.1 °F 95% 29.71 in 10.0 mi NW 3.5 mph - N/A   Overcast
1:15 AM 59.4 °F - 57.6 °F 94% 29.71 in 10.0 mi NW 3.5 mph - N/A   Overcast
1:35 AM 59.2 °F - 57.4 °F 94% 29.70 in 10.0 mi Calm Calm - N/A   Overcast
1:55 AM 59.4 °F - 57.6 °F 94% 29.71 in 10.0 mi NW 3.5 mph - N/A   Overcast
2:15 AM 59.2 °F - 57.6 °F 94% 29.70 in 10.0 mi NNW 4.6 mph - N/A   Overcast
2:35 AM 59.0 °F - 57.6 °F 95% 29.70 in 7.0 mi NNW 3.5 mph - N/A   Drizzle
2:55 AM 59.0 °F - 57.4 °F 94% 29.70 in 10.0 mi Calm Calm - N/A   Light Drizzle
3:15 AM 59.0 °F - 57.4 °F 94% 29.70 in 10.0 mi North 3.5 mph - N/A   Overcast
3:35 AM 58.5 °F - 57.2 °F 96% 29.70 in 7.0 mi North 4.6 mph - N/A   Overcast
3:55 AM 58.1 °F - 56.7 °F 95% 29.71 in 4.0 mi North 8.1 mph - N/A Rain Rain
4:15 AM 57.4 °F - 55.9 °F 95% 29.71 in 4.0 mi NNE 4.6 mph - 0.01 in Rain Rain
4:35 AM 56.3 °F - 54.5 °F 94% 29.72 in 10.0 mi NNE 5.8 mph - 0.01 in   Overcast
4:55 AM 55.8 °F - 53.6 °F 92% 29.73 in 10.0 mi NNE 4.6 mph - 0.01 in   Overcast
5:15 AM 54.5 °F - 52.5 °F 93% 29.73 in 7.0 mi North 5.8 mph - 0.01 in Rain Light Rain
5:34 AM 54.0 °F - 52.2 °F 94% 29.74 in 7.0 mi North 6.9 mph - 0.02 in Rain Light Rain
5:55 AM 53.6 °F - 52.0 °F 94% 29.75 in 7.0 mi North 4.6 mph - 0.05 in Rain Rain
6:15 AM 53.2 °F - 51.4 °F 94% 29.76 in 7.0 mi NNE 9.2 mph - 0.02 in Rain Rain
6:35 AM 53.2 °F - 51.4 °F 94% 29.77 in 5.0 mi NE 4.6 mph - 0.06 in Rain Rain
6:55 AM 53.2 °F - 51.4 °F 94% 29.78 in 10.0 mi NNE 4.6 mph - 0.06 in   Overcast
7:14 AM 53.2 °F - 51.6 °F 94% 29.79 in 4.0 mi North 5.8 mph - N/A   Overcast
7:35 AM 53.1 °F - 51.8 °F 95% 29.80 in 2.0 mi North 4.6 mph - N/A   Overcast
7:55 AM 52.7 °F - 51.3 °F 95% 29.80 in 2.5 mi NNE 9.2 mph - 0.01 in   Drizzle
8:15 AM 51.1 °F - 48.9 °F 92% 29.82 in 3.0 mi NNE 12.7 mph 26.5 mph N/A Rain Light Rain
8:35 AM 50.2 °F - 48.2 °F 93% 29.84 in 5.0 mi NNE 12.7 mph 19.6 mph N/A Rain Light Rain
8:55 AM 49.6 °F - 46.6 °F 89% 29.85 in 10.0 mi NNE 11.5 mph 20.7 mph N/A   Overcast
9:15 AM 49.5 °F - 46.4 °F 89% 29.87 in 10.0 mi NNE 6.9 mph - 0.01 in   Overcast
9:35 AM 49.1 °F - 46.0 °F 89% 29.88 in 5.0 mi NNE 6.9 mph 18.4 mph 0.01 in   Overcast
9:55 AM 49.1 °F - 46.4 °F 90% 29.89 in 5.0 mi NNE 9.2 mph 16.1 mph 0.01 in   Overcast
10:15 AM 49.1 °F - 47.3 °F 93% 29.90 in 4.0 mi NNE 5.8 mph - N/A Rain Rain
10:35 AM 50.0 °F - 47.3 °F 90% 29.91 in 10.0 mi NNE 8.1 mph - N/A Rain Light Rain
10:55 AM 49.1 °F - 46.2 °F 90% 29.92 in 10.0 mi North 15.0 mph 18.4 mph N/A Rain Light Rain
11:15 AM 47.7 °F - 45.5 °F 92% 29.93 in 5.0 mi North 15.0 mph 21.9 mph N/A Rain Light Rain
11:35 AM 48.6 °F - 46.0 °F 91% 29.94 in 10.0 mi North 12.7 mph 16.1 mph 0.01 in Rain Light Rain
11:55 AM 48.7 °F - 46.0 °F 90% 29.95 in 7.0 mi North 13.8 mph 18.4 mph 0.01 in Rain Light Rain
12:15 PM 48.7 °F - 45.7 °F 89% 29.96 in 10.0 mi North 9.2 mph - N/A   Unknown
12:35 PM 48.4 °F - 45.5 °F 90% 29.97 in 10.0 mi North 15.0 mph - N/A Rain Light Rain
12:55 PM 48.6 °F - 45.3 °F 89% 29.97 in 10.0 mi North 13.8 mph 21.9 mph N/A Rain Light Rain
1:15 PM 48.9 °F - 45.1 °F 87% 29.98 in 10.0 mi North 16.1 mph 20.7 mph N/A   Overcast
1:35 PM 48.0 °F - 44.2 °F 87% 29.99 in 10.0 mi North 16.1 mph 21.9 mph N/A Rain Light Rain
1:55 PM 46.6 °F - 43.2 °F 88% 30.01 in 10.0 mi North 18.4 mph 25.3 mph N/A Rain Light Rain
2:15 PM 43.9 °F 36.8 °F 41.4 °F 91% 30.02 in 10.0 mi North 15.0 mph 23.0 mph N/A   Overcast
2:35 PM 44.6 °F 38.1 °F 41.0 °F 87% 30.03 in 10.0 mi North 13.8 mph 23.0 mph N/A   Overcast
2:55 PM 44.4 °F 36.9 °F 40.6 °F 87% 30.04 in 10.0 mi NNW 17.3 mph 21.9 mph N/A   Overcast
3:14 PM 44.6 °F 38.1 °F 40.3 °F 85% 30.05 in 10.0 mi North 13.8 mph 23.0 mph N/A   Overcast
3:35 PM 45.5 °F 38.9 °F 40.5 °F 83% 30.05 in 10.0 mi North 15.0 mph 19.6 mph N/A   Overcast
3:55 PM 45.7 °F 40.2 °F 40.1 °F 81% 30.06 in 10.0 mi North 11.5 mph 18.4 mph N/A   Overcast
4:15 PM 46.6 °F - 40.3 °F 79% 30.06 in 10.0 mi North 10.4 mph 19.6 mph N/A   Overcast
4:35 PM 46.9 °F - 40.1 °F 77% 30.06 in 10.0 mi North 12.7 mph 19.6 mph N/A   Overcast
4:55 PM 48.2 °F - 38.3 °F 69% 30.07 in 10.0 mi NNW 12.7 mph 20.7 mph N/A   Overcast
5:15 PM 48.2 °F - 37.2 °F 66% 30.07 in 10.0 mi NNW 12.7 mph 21.9 mph N/A   Overcast
5:35 PM 48.2 °F - 37.8 °F 67% 30.08 in 10.0 mi North 11.5 mph 18.4 mph N/A   Overcast
5:55 PM 48.6 °F - 35.6 °F 61% 30.09 in 10.0 mi North 15.0 mph 21.9 mph N/A   Overcast
6:15 PM 48.7 °F - 35.2 °F 60% 30.09 in 10.0 mi North 13.8 mph 20.7 mph N/A   Scattered Clouds
6:35 PM 49.1 °F - 34.5 °F 57% 30.10 in 10.0 mi North 12.7 mph 18.4 mph N/A   Clear
6:55 PM 48.2 °F - 33.1 °F 56% 30.11 in 10.0 mi North 13.8 mph 23.0 mph N/A   Scattered Clouds
7:15 PM 48.4 °F - 33.8 °F 57% 30.12 in 10.0 mi North 8.1 mph 16.1 mph N/A   Clear
7:35 PM 47.8 °F - 33.4 °F 57% 30.12 in 10.0 mi North 9.2 mph 19.6 mph N/A   Clear
7:55 PM 47.7 °F - 32.9 °F 57% 30.14 in 10.0 mi North 11.5 mph 17.3 mph N/A   Clear
8:15 PM 46.4 °F 41.1 °F 31.8 °F 57% 30.14 in 10.0 mi North 11.5 mph 17.3 mph N/A   Clear
8:35 PM 45.7 °F 40.2 °F 30.7 °F 56% 30.15 in 10.0 mi North 11.5 mph - N/A   Clear
8:55 PM 44.2 °F 38.8 °F 31.6 °F 61% 30.16 in 10.0 mi North 10.4 mph - N/A   Clear
9:15 PM 43.3 °F 38.6 °F 32.0 °F 64% 30.17 in 10.0 mi NNW 8.1 mph - N/A   Clear
9:35 PM 43.0 °F 37.7 °F 31.5 °F 64% 30.17 in 10.0 mi North 9.2 mph 18.4 mph N/A   Clear
9:55 PM 41.9 °F 37.5 °F 32.0 °F 68% 30.19 in 10.0 mi NW 6.9 mph - N/A   Clear
10:15 PM 41.0 °F 37.1 °F 32.0 °F 70% 30.19 in 10.0 mi NNW 5.8 mph - N/A   Clear
10:35 PM 40.6 °F 34.8 °F 32.0 °F 71% 30.21 in 10.0 mi NNW 9.2 mph - N/A   Clear
10:55 PM 40.1 °F 35.3 °F 32.0 °F 73% 30.21 in 10.0 mi NNW 6.9 mph - N/A   Clear
11:15 PM 39.7 °F 34.3 °F 31.8 °F 73% 30.22 in 10.0 mi NNW 8.1 mph - N/A   Clear
11:35 PM 39.2 °F 34.2 °F 31.8 °F 75% 30.22 in 10.0 mi North 6.9 mph - N/A   Clear
11:55 PM 39.0 °F 34.8 °F 31.6 °F 75% 30.22 in 10.0 mi NNW 5.8 mph - N/A   Clear